Change the Weather History Date:

Wednesday, March 12, 2014

  Actual Average Record
Temperature  
Mean Temperature 48 °F 55 °F  
Max Temperature 63 °F 66 °F 86 °F (1955)
Min Temperature 33 °F 43 °F 26 °F (1987)
Degree Days  
Heating Degree Days 17 11  
Month to date heating degree days 208 150  
Since 1 July heating degree days 2862 2381  
Cooling Degree Days 0 1  
Month to date cooling degree days 0 6  
Year to date cooling degree days 0 11  
Moisture  
Dew Point 44 °F    
Average Humidity 68    
Maximum Humidity 100    
Minimum Humidity 35    
Precipitation  
Precipitation 0.00 in 0.13 in 2.26 in (1975)
Month to date precipitation 0.88 1.65  
Year to date precipitation 7.16 10.59  
Sea Level Pressure  
Sea Level Pressure 29.88 in    
Wind  
Wind Speed 12 mph (WNW)    
Max Wind Speed 24 mph    
Max Gust Speed 36 mph    
Visibility 9 miles    
Events      
T = Trace of Precipitation, MM = Missing Value Source: NWS Daily Summary

Daily Weather History Graph

Daily Weather History Graph

Search for Another Location

Airport or City:

Trip Planner

Search our weather history database for the weather conditions in past years. The results will help you decide how hot, cold, wet, or windy it might be!

Date:

Astronomy

Mar. 12, 2014 Rise Set
Actual Time 7:14 AM CDT 7:05 PM CDT
Civil Twilight 6:49 AM CDT 7:30 PM CDT
Nautical Twilight 6:21 AM CDT 7:59 PM CDT
Astronomical Twilight 5:52 AM CDT 8:28 PM CDT
Moon 3:44 PM CDT (3/12) 4:37 AM CDT (3/12)
Length of Visible Light 12h 40m
Length of Day
11h 51m
Waxing Gibbous, 85% of the Moon is Illuminated
Mar 12
Waxing Gibbous
Mar 16
Full
Mar 23
Last Quarter
Mar 30
New
Apr 7
First Quarter

Hourly Weather History & Observations

Time (CDT) Temp. Windchill Dew Point Humidity Pressure Visibility Wind Dir Wind Speed Gust Speed Precip Events Conditions
12:27 AM 61.0 °F - 60.1 °F 97% 29.67 in 10.0 mi SW 6.9 mph - N/A   Mostly Cloudy
12:53 AM 60.1 °F - 59.0 °F 96% 29.66 in 8.0 mi SSW 6.9 mph - N/A   Overcast
1:06 AM 60.1 °F - 59.0 °F 96% 29.66 in 8.0 mi SSW 8.1 mph - N/A   Mostly Cloudy
1:53 AM 61.0 °F - 60.1 °F 97% 29.65 in 7.0 mi SSW 9.2 mph - N/A   Overcast
2:01 AM 61.0 °F - 60.1 °F 97% 29.65 in 7.0 mi SSW 10.4 mph - N/A   Overcast
2:25 AM 62.1 °F - 60.1 °F 93% 29.66 in 8.0 mi SSW 11.5 mph - N/A   Overcast
2:53 AM 62.1 °F - 60.1 °F 93% 29.65 in 9.0 mi SW 12.7 mph - N/A   Overcast
3:53 AM 63.0 °F - 60.1 °F 90% 29.65 in 8.0 mi SW 13.8 mph - N/A   Overcast
4:00 AM 63.0 °F - 60.1 °F 90% 29.65 in 8.0 mi SW 16.1 mph 24.2 mph N/A   Overcast
4:53 AM 62.1 °F - 59.0 °F 90% 29.65 in 8.0 mi SW 11.5 mph - N/A   Overcast
5:53 AM 61.0 °F - 59.0 °F 93% 29.68 in 7.0 mi SW 10.4 mph - N/A   Overcast
6:05 AM 61.0 °F - 59.0 °F 93% 29.69 in 7.0 mi WSW 8.1 mph - N/A   Overcast
6:53 AM 61.0 °F - 55.9 °F 83% 29.72 in 10.0 mi WNW 11.5 mph 21.9 mph N/A   Overcast
7:16 AM 60.1 °F - 48.9 °F 67% 29.75 in 10.0 mi NW 16.1 mph 25.3 mph N/A   Overcast
7:53 AM 57.0 °F - 46.9 °F 69% 29.79 in 10.0 mi NW 16.1 mph 33.4 mph N/A   Overcast
8:16 AM 55.0 °F - 45.0 °F 69% 29.82 in 8.0 mi NNW 18.4 mph 33.4 mph N/A   Overcast
8:53 AM 52.0 °F - 43.0 °F 71% 29.86 in 10.0 mi NNW 19.6 mph 25.3 mph N/A   Overcast
9:53 AM 51.1 °F - 41.0 °F 68% 29.91 in 10.0 mi NNW 16.1 mph 32.2 mph N/A   Overcast
10:53 AM 51.1 °F - 37.9 °F 61% 29.95 in 10.0 mi NNW 17.3 mph 27.6 mph N/A   Overcast
11:53 AM 52.0 °F - 36.0 °F 54% 29.99 in 10.0 mi NNW 18.4 mph 27.6 mph N/A   Mostly Cloudy
12:53 PM 54.0 °F - 35.1 °F 49% 30.00 in 10.0 mi NNW 18.4 mph 25.3 mph N/A   Overcast
1:53 PM 54.0 °F - 35.1 °F 49% 30.02 in 10.0 mi North 20.7 mph 31.1 mph N/A   Overcast
2:53 PM 54.0 °F - 34.0 °F 47% 30.03 in 10.0 mi NW 16.1 mph 25.3 mph N/A   Overcast
3:04 PM 54.0 °F - 34.0 °F 47% 30.03 in 1.0 mi NNW 17.3 mph 28.8 mph N/A   Haze
3:09 PM 55.0 °F - 33.1 °F 43% 30.03 in 5.0 mi NNW 20.7 mph 28.8 mph N/A   Haze
3:53 PM 55.0 °F - 32.0 °F 42% 30.05 in 10.0 mi NNW 19.6 mph 31.1 mph N/A   Partly Cloudy
4:53 PM 55.0 °F - 30.0 °F 38% 30.06 in 10.0 mi NW 15.0 mph 26.5 mph N/A   Scattered Clouds
5:53 PM 54.0 °F - 28.0 °F 37% 30.09 in 10.0 mi North 13.8 mph 24.2 mph N/A   Partly Cloudy
6:53 PM 51.1 °F - 25.0 °F 36% 30.10 in 10.0 mi NNW 9.2 mph 21.9 mph N/A   Clear
7:53 PM 48.9 °F - 25.0 °F 39% 30.13 in 10.0 mi NNW 6.9 mph - N/A   Clear
8:53 PM 42.1 °F - 28.9 °F 60% 30.15 in 10.0 mi Calm Calm - N/A   Clear
9:53 PM 41.0 °F - 30.9 °F 67% 30.17 in 10.0 mi Calm Calm - N/A   Clear
10:53 PM 37.0 °F - 30.9 °F 79% 30.18 in 10.0 mi Calm Calm - N/A   Clear
11:53 PM 36.0 °F 33.3 °F 33.1 °F 89% 30.19 in 10.0 mi South 3.5 mph - N/A   Clear